Probability
0 0 0 0 0 0 0 0 0 0 0 0 0 0 0 0 0 0 0 1 3 4 5 6 7 6 4 4 5 6 5 4 3 2 1 2 2 2 2 1 0 0 0 0 1 0 0 0 0
0 0 0 0 0 0 0 0 0 0 0 0 0 0 0 0 0 0 0 1 3 6 7 8 10 9 7 6 7 6 6 4 3 1 0 1 1 1 1 1 0 0 0 1 2 1 0 0 0
0 0 0 0 0 0 0 0 0 0 0 0 0 0 0 0 0 0 1 2 5 8 9 10 13 15 13 11 10 9 7 5 3 1 1 1 0 0 0 0 0 0 1 2 3 2 1 0 0
0 0 0 0 0 0 0 0 0 0 0 0 0 0 0 0 0 1 2 5 8 10 10 12 16 18 18 16 13 10 9 7 5 3 2 2 1 1 1 1 1 2 2 3 3 3 2 1 0
0 0 0 0 0 0 0 0 0 0 0 0 0 0 0 0 1 3 6 9 12 13 13 14 18 21 22 20 15 11 11 11 9 5 3 4 3 3 3 3 3 3 3 3 3 3 3 2 1
0 0 0 0 0 0 0 0 0 0 0 0 0 0 0 0 3 7 9 12 16 17 15 16 20 24 25 22 17 13 12 13 12 8 6 6 6 5 4 3 3 3 3 3 3 3 3 2 1
0 0 0 0 0 0 0 0 0 0 0 0 0 0 0 1 5 11 14 17 21 22 20 20 23 25 25 21 17 13 11 12 12 10 8 8 6 5 4 3 2 2 2 2 3 3 2 1 0
0 0 0 0 0 0 0 0 0 0 0 0 0 0 0 3 9 15 20 22 24 25 25 25 25 26 22 18 14 11 8 9 9 8 6 5 4 3 2 1 1 1 0 1 1 2 1 0 0
0 0 0 0 0 0 0 0 0 0 0 0 0 0 1 6 14 20 22 23 24 24 24 25 25 23 19 15 12 9 6 6 5 4 3 3 2 1 1 0 0 0 0 0 0 0 0 0 0
0 0 0 0 0 0 0 0 0 0 0 0 0 0 3 9 17 21 22 21 22 22 21 20 20 19 16 14 10 6 4 3 2 1 1 1 1 1 0 0 0 0 0 0 0 0 0 0 0
0 0 0 0 0 0 0 0 0 0 0 0 0 1 4 10 15 19 20 19 20 20 19 17 17 16 13 11 9 5 3 2 1 0 0 0 0 0 0 0 0 0 0 0 0 0 0 0 0
0 0 0 0 0 0 0 0 0 0 0 0 0 0 3 8 12 15 17 17 18 19 18 17 16 13 10 8 7 5 3 2 1 0 0 0 0 0 1 1 1 0 0 0 0 0 0 0 0
0 0 0 0 0 0 0 0 0 0 0 0 0 0 1 4 8 11 12 14 15 16 15 15 14 10 7 6 6 5 4 3 2 1 0 0 0 0 1 2 2 1 0 0 0 0 0 0 0
0 0 0 0 0 0 0 0 0 0 0 0 0 0 0 2 5 7 8 9 10 11 12 12 10 7 5 5 5 4 3 3 2 1 0 0 0 0 1 2 3 2 1 0 0 1 1 0 0
0 0 0 0 0 0 0 0 0 0 0 0 0 0 0 0 2 3 4 5 6 7 8 8 7 5 4 4 3 1 1 1 1 1 0 0 0 0 0 1 2 3 2 2 2 1 1 0 0
0 0 0 0 0 0 0 0 0 0 0 0 0 0 0 0 0 1 1 3 4 4 5 6 6 5 4 2 1 0 0 0 0 0 0 0 0 0 0 0 1 2 2 3 3 2 0 0 0
0 0 0 0 0 0 0 0 0 0 1 1 1 0 0 0 0 0 0 1 2 3 3 5 6 6 4 2 0 0 0 0 0 0 0 0 0 0 0 0 0 1 1 2 2 1 0 0 0
0 0 0 0 0 0 0 0 0 0 1 2 2 1 0 0 1 1 1 1 1 2 2 3 4 4 3 2 1 0 0 0 0 0 0 0 0 0 0 0 0 0 0 1 1 0 0 0 0
0 0 0 0 0 0 0 0 0 0 1 2 2 2 1 1 1 2 2 2 1 0 0 1 1 1 1 2 1 0 0 0 0 0 0 0 0 0 0 0 0 0 0 0 0 0 0 0 0
0 0 0 0 0 0 0 0 0 0 0 1 1 1 1 1 1 1 2 2 1 0 0 0 0 0 0 1 1 0 0 0 0 0 0 0 0 0 0 0 0 0 0 0 0 0 0 0 0
0 0 0 0 0 0 0 0 0 0 0 0 0 0 0 0 0 0 1 1 0 0 0 0 0 0 0 0 0 0 0 0 0 0 0 0 0 0 0 0 0 0 0 0 0 0 0 0 0
0 0 0 0 0 0 0 0 0 0 0 0 0 0 0 0 0 0 0 0 0 0 0 1 1 1 0 0 0 0 0 0 0 0 0 0 0 0 0 0 0 0 0 0 0 0 0 0 0
0 0 0 0 0 0 0 0 0 0 0 0 0 0 0 0 0 0 0 0 0 0 0 1 1 1 0 0 0 0 0 0 0 0 0 0 0 0 0 0 0 0 0 0 0 0 0 0 0
0 0 0 0 0 0 0 0 0 0 0 0 0 0 0 0 0 0 0 0 0 0 0 1 1 0 0 0 0 0 0 0 0 0 0 0 0 0 0 0 0 0 0 0 0 0 0 0 0
0 0 0 0 0 0 0 0 0 0 0 0 0 0 0 0 0 0 0 0 0 0 0 0 0 0 0 0 0 0 0 0 0 0 0 0 0 0 0 0 0 0 0 0 0 0 0 0 0
0 0 0 0 0 0 0 0 0 0 0 0 0 0 0 0 0 0 0 0 0 0 0 0 0 0 0 0 0 0 0 0 0 0 0 0 0 0 0 0 0 0 0 0 0 0 0 0 0
0 0 0 0 0 0 0 0 0 0 0 0 0 0 0 0 0 0 0 0 0 0 0 0 0 0 0 0 0 0 0 0 0 0 0 0 0 0 0 0 0 0 0 0 0 0 0 0 0
0 0 0 0 0 0 0 0 0 0 0 0 0 0 0 0 0 0 0 0 0 0 0 0 0 0 0 0 0 0 0 0 0 0 0 0 0 0 0 0 0 0 0 0 0 0 0 0 0
0 0 0 0 0 0 0 0 0 0 0 0 0 0 0 0 0 0 0 0 0 0 0 0 0 0 0 0 0 0 0 0 0 0 0 0 0 0 0 0 0 0 0 0 0 0 0 0 0
0 0 0 0 0 0 0 0 0 0 0 0 0 0 0 0 0 0 0 0 0 0 0 0 0 0 0 0 0 0 0 0 0 0 0 0 0 0 0 0 0 0 0 0 0 0 0 0 0
Wind_Speed
3 3 3 4 6 4 4 6 4 3 4 3 3 4 6 6 6 4 0 5 8 9 9 11 14 13 13 13 12 12 12 12 12 12 12 12 12 12 12 12 11 11 12 13 13 13 13 13 13
1 2 5 5 5 2 7 6 6 6 4 1 1 2 2 3 1 2 3 4 8 9 8 9 14 13 13 12 12 12 11 11 11 11 11 12 12 11 11 11 11 12 12 12 13 13 12 13 13
2 4 5 5 4 7 6 5 7 4 3 1 1 1 2 2 3 4 4 7 8 8 7 9 14 13 13 12 12 12 11 11 10 11 11 11 11 11 11 11 11 11 11 12 12 12 12 12 12
3 4 5 3 6 7 5 3 2 1 1 2 3 1 1 1 2 4 6 9 9 7 7 9 13 13 12 12 12 12 11 11 10 10 10 10 11 11 11 11 11 11 11 11 12 12 12 12 11
4 4 3 2 6 6 5 4 2 2 2 2 3 2 2 2 1 6 8 9 9 7 6 8 12 13 13 12 12 11 11 11 10 10 10 10 11 11 11 11 11 11 11 11 11 11 11 11 11
4 4 3 5 6 5 5 4 3 3 2 2 4 3 2 1 4 7 7 7 7 7 6 7 11 11 11 12 11 11 10 10 9 9 9 10 10 10 10 10 10 10 11 10 11 11 11 11 10
5 4 5 5 4 5 5 4 5 4 4 5 5 4 2 1 3 6 6 6 5 6 5 5 6 8 10 11 10 10 10 9 9 8 8 8 9 10 10 10 9 10 10 10 10 10 11 10 10
5 4 3 4 5 6 3 3 3 6 5 3 5 6 5 4 6 7 6 6 5 5 5 4 4 5 5 6 9 9 9 8 8 8 8 8 8 8 9 8 8 9 10 9 9 10 10 10 10
4 3 6 7 7 5 2 2 2 2 2 1 2 3 3 7 9 9 6 5 5 5 4 4 5 5 5 5 6 7 8 8 7 7 9 7 4 4 5 6 8 8 9 9 9 9 10 9 9
4 6 9 5 5 3 2 3 3 2 1 1 1 0 3 8 10 11 9 9 8 7 5 4 4 5 5 4 4 3 3 4 4 4 5 4 3 3 5 6 8 8 8 7 8 9 9 7 4
6 8 4 4 4 3 2 2 2 4 4 6 6 6 7 8 9 10 10 10 9 8 6 5 5 5 5 3 3 2 2 3 4 4 4 4 3 3 3 3 3 4 5 4 5 5 3 3 3
5 6 4 3 3 3 3 2 2 5 7 4 5 7 9 10 11 11 10 9 7 7 7 6 5 5 4 4 3 3 3 3 3 4 5 4 3 3 3 2 2 2 2 3 3 3 3 4 4
6 6 4 5 4 3 3 4 4 6 6 2 3 6 9 10 10 9 7 6 6 7 7 7 6 6 5 4 3 4 4 4 4 4 4 4 4 4 3 2 2 3 3 3 3 3 4 4 3
5 4 5 5 5 3 4 6 4 8 4 2 5 7 8 9 9 6 5 6 6 7 7 6 7 6 6 5 4 4 4 4 4 4 4 5 4 4 4 3 3 3 3 3 3 4 4 3 3
2 3 6 5 5 4 2 7 8 7 3 4 5 6 5 5 5 7 8 7 7 7 6 6 7 6 7 6 5 4 4 4 4 4 4 5 5 5 4 4 3 3 3 4 3 4 3 3 3
0 2 5 4 5 5 5 12 6 3 5 5 5 5 5 5 5 5 5 5 5 5 6 6 5 6 6 6 5 4 4 4 4 4 4 5 5 6 4 4 3 3 3 3 3 3 3 3 3
2 5 6 4 3 3 7 9 5 2 4 5 5 5 5 4 4 4 4 5 5 6 6 6 5 6 6 6 5 4 4 4 4 4 4 5 5 6 5 4 4 4 4 3 4 3 3 3 3
5 5 5 5 3 3 6 8 5 2 3 4 4 4 4 4 5 4 4 4 4 5 5 6 5 6 5 4 4 3 3 3 3 3 4 5 5 6 5 4 5 5 4 3 4 4 3 3 3
3 4 6 5 3 3 7 9 7 5 3 4 3 4 4 5 4 2 3 3 3 4 4 5 6 6 5 4 5 4 4 3 3 3 4 5 5 6 5 4 5 5 4 5 5 4 4 2 2
5 6 6 5 3 4 5 9 6 5 5 4 4 4 5 4 2 1 2 2 4 5 5 5 6 6 6 5 4 3 3 3 3 2 3 4 5 5 5 5 5 5 4 5 5 5 3 2 2
6 6 5 4 4 3 2 7 5 4 3 2 2 3 3 3 3 2 2 2 2 4 5 5 6 6 6 5 3 3 3 2 2 3 3 3 4 5 5 5 5 6 5 5 6 5 6 4 2
7 4 4 5 2 3 2 5 5 3 2 3 3 3 3 3 2 2 1 1 2 3 4 4 5 5 6 6 6 6 5 4 4 4 3 3 4 5 5 5 5 5 5 5 5 5 4 5 4
3 3 4 5 4 4 3 4 6 1 2 4 4 4 4 3 2 2 2 2 2 2 2 3 4 5 5 6 7 6 4 3 3 3 4 4 3 4 4 5 4 5 4 5 5 5 5 4 4
2 1 2 1 2 6 8 6 5 1 2 4 5 4 5 4 2 2 1 0 1 1 1 2 4 4 5 5 6 6 6 5 5 4 4 4 2 2 4 4 4 4 4 5 5 5 6 5 4
1 2 1 1 4 6 4 5 3 2 3 4 6 6 6 5 3 3 2 2 1 0 0 2 3 4 4 5 5 5 6 7 7 6 5 4 3 2 4 4 4 4 4 4 4 5 5 6 6
2 3 4 4 5 2 2 5 1 4 5 6 6 6 6 7 6 5 3 2 1 1 0 1 3 3 4 4 4 4 4 4 4 5 4 5 4 4 5 5 5 4 4 4 4 4 4 5 5
1 1 1 1 1 2 3 0 2 8 9 10 10 9 8 7 7 6 5 4 2 1 0 1 2 3 3 4 3 3 3 3 4 4 4 4 3 3 5 5 5 5 5 5 5 4 4 4 5
1 0 1 1 2 3 2 1 3 8 10 10 11 10 9 8 7 7 6 5 4 3 2 1 1 2 2 3 3 2 3 3 3 4 4 4 4 4 5 5 4 4 4 5 5 4 4 4 4
4 3 1 1 2 1 1 1 3 4 6 7 9 9 8 8 7 7 6 5 5 4 4 3 2 2 1 2 2 2 2 2 3 3 4 4 4 4 5 5 5 5 5 4 5 4 5 5 4
1 2 1 1 2 1 1 1 4 5 6 7 8 9 9 8 8 7 7 7 6 6 5 4 3 2 1 0 1 2 2 2 3 3 3 3 4 4 4 4 4 4 4 4 5 5 5 5 5
Wind_Direction
43 65 71 59 58 57 232 237 222 228 225 220 183 168 172 174 174 204 162 141 137 148 157 156 150 147 144 140 136 132 132 130 128 128 127 125 124 121 118 117 115 112 109 107 103 100 99 100 100
94 83 59 64 102 197 253 235 220 219 213 158 123 127 144 217 198 139 147 161 145 148 152 152 150 147 145 143 140 137 132 131 131 130 131 130 127 124 121 118 116 112 109 108 106 104 102 103 102
105 61 87 90 153 196 228 228 223 246 236 176 136 146 172 205 174 173 181 155 142 145 148 154 151 150 148 145 142 140 136 132 132 133 133 131 130 128 123 118 114 111 110 110 108 106 106 107 106
89 55 62 105 220 225 223 239 207 240 240 195 155 173 260 296 191 180 151 146 141 144 145 154 152 151 148 145 143 141 139 135 133 134 134 131 130 128 123 115 112 109 109 112 110 108 109 108 108
65 86 99 233 239 243 237 249 220 208 215 190 155 169 263 330 104 135 144 146 147 146 147 155 155 153 150 148 145 142 139 136 133 133 134 130 127 124 122 118 114 113 112 114 113 112 109 108 107
69 82 142 228 245 257 251 227 189 208 219 188 152 156 246 339 135 145 144 146 148 147 147 154 158 155 153 152 149 145 140 137 135 134 132 131 128 123 119 121 120 118 117 117 115 114 111 107 105
124 131 196 216 241 256 240 194 184 195 209 210 169 154 250 200 157 140 133 132 137 141 141 145 154 157 157 154 150 148 142 138 135 131 124 122 125 123 122 121 123 121 118 115 114 114 111 106 103
138 134 203 215 218 245 232 185 200 184 213 200 157 166 205 197 145 128 124 126 133 138 142 145 144 142 146 150 150 146 140 138 133 126 117 112 119 121 120 118 117 119 120 117 114 113 111 105 102
110 131 217 211 200 235 217 196 230 180 153 167 195 197 200 139 136 134 135 139 147 149 146 147 145 140 138 143 146 140 136 134 127 121 116 107 105 110 112 114 114 114 115 116 114 111 108 100 97
146 203 223 209 198 215 215 202 202 142 177 209 212 155 125 142 153 159 166 170 171 171 167 154 152 148 141 141 131 126 125 125 117 116 118 109 104 106 110 114 116 116 110 110 112 108 101 90 85
186 214 220 232 227 233 238 237 205 164 222 215 197 179 156 161 168 175 179 179 180 175 171 165 159 153 144 134 131 125 121 122 121 122 122 115 106 103 100 103 103 104 102 94 95 92 88 89 90
209 234 220 239 223 218 224 224 225 206 225 219 193 170 164 173 182 187 186 184 178 172 177 168 162 157 149 139 140 139 136 134 137 137 135 129 123 121 122 116 117 112 110 109 99 102 100 95 92
229 249 239 241 257 248 247 243 244 249 257 255 174 165 177 185 193 195 189 181 175 180 181 174 166 165 156 147 151 149 150 152 147 143 143 141 141 144 141 132 125 121 118 120 118 115 111 104 97
230 245 259 249 243 239 236 259 241 255 254 219 188 190 192 193 192 185 181 183 187 189 184 177 172 168 160 160 159 160 159 154 151 152 156 150 149 153 149 142 139 133 131 129 128 128 120 110 105
227 263 281 254 226 227 205 268 237 246 210 209 204 199 196 200 188 191 192 189 189 188 181 179 177 167 167 165 166 162 164 158 162 161 159 159 158 158 155 153 153 150 137 127 117 114 108 107 101
202 227 253 254 208 204 184 254 255 236 188 210 215 208 205 211 208 209 199 192 185 178 176 179 177 172 174 169 167 166 167 165 168 164 164 166 164 162 158 158 158 150 140 134 130 126 114 110 107
217 231 237 267 223 192 197 247 266 228 187 211 223 220 216 221 231 223 206 198 186 182 177 174 171 173 177 171 165 164 164 166 166 166 168 170 166 164 160 160 154 148 142 140 141 127 128 130 121
219 229 236 234 240 207 227 251 279 278 196 221 230 229 223 226 237 226 205 197 188 180 175 173 171 171 167 159 147 145 151 158 159 169 174 169 167 165 159 154 152 148 144 144 141 135 121 126 127
221 228 254 258 262 230 243 260 270 269 244 240 241 233 234 240 248 230 201 183 169 168 170 174 174 173 163 163 164 164 174 171 170 173 168 167 165 165 163 158 154 155 156 156 148 135 126 119 126
250 250 260 279 270 233 257 270 270 256 239 226 233 240 241 251 277 258 206 182 181 179 180 180 181 177 174 176 176 164 156 162 166 162 160 165 163 164 168 164 162 159 150 148 152 143 133 133 144
248 236 242 257 314 280 272 282 257 251 240 250 255 254 253 239 241 240 224 216 194 190 189 188 187 180 176 161 142 119 108 106 136 160 171 172 170 167 165 167 164 164 163 167 169 162 151 153 165
253 252 250 254 254 260 204 265 265 254 275 309 315 317 303 282 266 257 238 233 219 216 197 186 180 175 169 159 161 164 168 172 180 174 172 168 169 169 165 167 167 168 169 170 177 171 155 152 161
254 274 244 241 230 250 224 235 276 329 302 315 319 310 307 286 262 250 233 226 234 216 193 183 167 166 165 168 170 169 170 167 146 144 153 163 164 165 161 166 167 170 174 174 175 170 166 167 168
270 336 297 232 188 237 213 197 268 311 282 319 339 339 335 323 303 299 317 14 1 36 154 169 163 166 167 172 173 171 167 157 150 152 163 166 159 164 162 162 170 175 176 180 181 179 177 181 172
56 87 32 282 218 237 180 182 233 357 2 353 346 345 350 355 358 353 353 1 1 27 138 174 169 172 171 170 175 177 172 168 170 170 175 169 168 177 178 172 177 178 179 181 178 179 185 184 180
262 174 187 218 223 268 189 200 153 20 16 12 6 1 6 5 3 357 343 337 322 308 188 171 180 175 172 173 178 173 169 171 173 173 172 179 186 188 177 177 182 180 176 176 175 181 190 186 189
332 251 245 192 251 236 236 238 356 17 17 12 8 10 8 2 359 357 356 357 353 341 283 208 185 170 170 170 166 169 168 168 172 171 170 178 181 174 170 176 181 181 180 179 176 184 191 190 194
7 262 47 147 216 231 244 354 344 355 1 2 5 360 354 358 1 2 2 3 6 1 3 34 83 161 161 161 166 167 174 176 170 165 171 172 172 167 166 171 177 179 183 182 181 183 188 189 198
10 23 2 255 242 216 217 289 12 349 357 357 355 353 352 355 356 359 358 1 10 17 25 28 35 45 84 146 162 156 166 172 168 169 176 175 173 170 172 175 177 180 185 185 185 190 186 191 195
63 17 0 217 281 248 175 253 14 14 12 9 360 357 357 2 0 359 2 6 14 19 20 23 22 29 28 100 141 161 160 163 167 174 177 170 172 173 172 170 174 181 182 183 188 191 190 191 195